ATLAS 5 CENTAUR DEB, 43999

Orbit data source: Space-Track

ATLAS 5 CENTAUR DEB, 43999 is space debris in HEO originally from a launch on Wed, 17 Sep 2014 UTC launched from the Air Force Eastern Test Range (AFETR). Debris objects in space refer to the collection of defunct objects orbiting the Earth. Examples of debris include non-operational satellites, rocket bodies, and fragments generated from explosions, collisions, or faulty payload assembly.

Loading next visibility...
Identifier
43999, 2014-055BE
Orbit
HEO
Country
Flag of USUS
Related business
Flag of USUnited Launch Alliance/Lockheed Martin (US)
Manufacturer
Unknown
Mission
Spacecraft
Bus & Motor
Unknown
Mass
Unknown
Launch date (UTC)
2014-09-17 (11 years ago)
Launch vehicle
Unknown
Launch site
Air Force Eastern Test Range (AFETR)
Object type
Payload
Rocket body
Debris
Shape & HBR
Unknown shape, 1.1 m
Radar Cross Section
Small (<0.1 m²)

Expand to show TLE details & history
Last TLE update: 3 days ago

TLE from 3 days ago
0 ATLAS 5 CENTAUR DEB
1 43999U 14055BE  25284.53391193 -.00000009  00000-0  00000-0 0  9994
2 43999  19.6034 174.6069 4798684 112.2775 304.3500  1.85337091 48096
Epoch: 2025-10-11T12:48Z
TLE epoch observation values (Epoch: 2025-10-11T12:48:49.990Z)
Latitude
-0.00001°
Longitude
-37.91538°
Altitude
19,963.952 km
Speed
4.003 km/s
True Right ascension
11h 38m 37s
True Declination
0° 00' 00"
Sunlit
Object was in daylight at epoch
Visualization orbit readout
Latitude
Unknown
Longitude
Unknown
Altitude
Unknown
Speed
Unknown
Apparent Right ascension
Unknown
Apparent Declination
Unknown
Sunlit
N/A
Visualization observer readout
Local Sidereal Time
12:37:24
Azimuth
Unknown
Elevation
Unknown
Doppler factor
Unknown
Orbital elements
Apogee altitude
35,054.923 km
Perigee altitude
8,184.404 km
Semi-major axis
27,997.801 km
Eccentricity
0.47987
Inclination
19.6034°
RAAN
174.6069°
Arg. of periapsis
112.2775°
True anomaly
247.71163°
Mean anomaly
304.35°
Eccentric anomaly
277.06428°
Mean motion
0.46329 °/min
Orbital period
777.04 mins
BSTAR
0
Loading maneuver chart data...
Computing Atmospheric mass density...
Loading historical data...
Loading historical data...
Loading historical data...
Loading historical data...
Loading historical data...
Loading historical data...
Loading historical data...

Documentation

Showing up to 5 results
|